Location: Shepherdstown, WV
(39.4326°N, 77.8042°W)
Time: 04:25:46
(UTC-04:00)

Vanguard 1 - Pass Details

Date: 07 October 2021
Orbit: 653 x 3829 km, 34.2° (Epoch: 18 October)

Event Time Altitude Azimuth Distance (km) Brightness Sun altitude
Rises 20:50:37 0° 275° (W) 5,291 15.1 -25.2°
Reaches altitude 10° 20:53:30 10° 272° (W) 4,623 14.5 -25.7°
Maximum altitude 21:07:33 66° 195° (SSW) 3,286 12.5 -28.3°
Enters shadow 21:17:58 38° 130° (SE) 4,682 12.9 -30.2°
